This is the latest recevied weather packets stored in our database for station/object BM2MWA-13. If no packets are shown the sender has not sent any weather packets the latest 10 day(s).
| Time | Temp. | Humidity | Pressure | Rain* | Wind** | Luminosity | Snow |
|---|---|---|---|---|---|---|---|
| 1777908424 | 18.33° C | 84% | 1014 hPa | 0 mm | - | - | - |
| 1777907825 | 18.33° C | 84% | 1014.3 hPa | 0 mm | - | - | - |
| 1777907224 | 18.33° C | 83% | 1014.7 hPa | 0 mm | - | - | - |
| 1777906623 | 18.33° C | 83% | 1014.7 hPa | 0 mm | - | - | - |
| 1777906024 | 18.33° C | 83% | 1015 hPa | 0 mm | - | - | - |
| 1777905424 | 18.33° C | 81% | 1014.9 hPa | 0 mm | - | - | - |
| 1777904824 | 18.33° C | 82% | 1014.9 hPa | 0 mm | - | - | - |
| 1777904225 | 18.33° C | 87% | 1015.1 hPa | 0 mm | - | - | - |
| 1777903623 | 17.78° C | 87% | 1015.1 hPa | 0 mm | - | - | - |
| 1777903024 | 17.78° C | 88% | 1015.2 hPa | 0 mm | - | - | - |
| 1777902424 | 17.78° C | 87% | 1015.5 hPa | 0.51 mm | - | - | - |
| 1777901824 | 17.22° C | 87% | 1015.6 hPa | 0.51 mm | - | - | - |
| 1777901223 | 17.22° C | 85% | 1015.3 hPa | 1.02 mm | - | - | - |
| 1777900623 | 17.22° C | 86% | 1015.2 hPa | 1.02 mm | - | - | - |
| 1777900023 | 17.22° C | 86% | 1015.4 hPa | 1.52 mm | - | - | - |
| 1777899424 | 17.22° C | 85% | 1015.5 hPa | 1.52 mm | - | - | - |
| 1777898824 | 17.22° C | 85% | 1015.7 hPa | 1.52 mm | - | - | - |
| 1777898224 | 17.22° C | 83% | 1015.7 hPa | 1.52 mm | - | - | - |
| 1777897623 | 17.22° C | 84% | 1015.8 hPa | 2.03 mm | - | - | - |
| 1777897023 | 17.22° C | 86% | 1016 hPa | 3.05 mm | - | - | - |
| 1777896424 | 17.22° C | 84% | 1015.9 hPa | 3.56 mm | - | - | - |
| 1777895824 | 16.67° C | 85% | 1015.9 hPa | 4.06 mm | - | - | - |
| 1777895223 | 17.22° C | 85% | 1015.8 hPa | 4.06 mm | - | - | - |
| 1777894624 | 17.22° C | 84% | 1015.7 hPa | 5.08 mm | - | - | - |
| 1777894023 | 17.22° C | 83% | 1015.5 hPa | 5.08 mm | - | - | - |
* Rain latest hour (hover to see other rain measurements)
** Current wind speed in m/s (hover to see current wind gust speed)